Kiana, AK

1:24 PM AKDT on March 27, 2017 (GMT -0800)
Baker Memorial

Weather History for PAIK - August, 2014

Change the Weather History Date:

Tuesday, August 19, 2014

  Actual Average (PASK) Record (PASK)
Temperature  
Mean Temperature 49 °F -  
Max Temperature 51 °F 55 °F 78 °F (2004)
Min Temperature 39 °F 44 °F 39 °F (1997)
Degree Days  
Heating Degree Days 16    
Moisture  
Dew Point 46 °F    
Average Humidity 89    
Maximum Humidity 100    
Minimum Humidity 72    
Precipitation  
Precipitation 0.00 in - - ()
Sea Level Pressure  
Sea Level Pressure 30.06 in    
Wind  
Wind Speed 4 mph (WNW)    
Max Wind Speed 8 mph    
Max Gust Speed -    
Visibility 7 miles    
Events Fog    
Averages and records for this station are not official NWS values.
T = Trace of Precipitation, MM = Missing Value Source: NWS Daily Summary

Daily Weather History Graph

Daily Weather History Graph

Search for Another Location

Airport or City:

Trip Planner

Search our weather history database for the weather conditions in past years. The results will help you decide how hot, cold, wet, or windy it might be!

Date:

Astronomy

Aug. 19, 2014 Rise Set
Actual Time 6:27 AM AKDT 11:00 PM AKDT
Civil Twilight 5:11 AM AKDT 12:14 AM AKDT
Nautical Twilight 3:17 AM AKDT 2:12 AM AKDT
Astronomical Twilight Sun does not rise Sun does not rise
Moon 12:30 AM AKDT (8/19) 8:08 PM AKDT (8/19)
Length of Visible Light 19h 03m
Length of Day
16h 33m
Waning Crescent, 28% of the Moon is Illuminated
Aug 19
Waning Crescent
Aug 25
New
Sep 2
First Quarter
Sep 8
Full
Sep 15
Last Quarter

Hourly Weather History & Observations

Time (AKDT) Temp. Windchill Dew Point Humidity Pressure Visibility Wind Dir Wind Speed Gust Speed Precip Events Conditions
12:01 AM 48.9 °F - 45.0 °F 86% 30.03 in 10.0 mi West 5.8 mph - N/A   Clear
1:01 AM 48.0 °F - 45.0 °F 89% 30.05 in 10.0 mi West 6.9 mph - N/A   Clear
2:01 AM 46.0 °F - 45.0 °F 96% 30.06 in 10.0 mi Calm Calm - N/A   Clear
3:04 AM 44.6 °F 43.1 °F 44.6 °F 100% 29.95 in 1.5 mi SSW 3.5 mph - N/A   Clear
3:08 AM 44.6 °F - 44.6 °F 100% 29.95 in 0.8 mi Calm Calm - N/A   Clear
3:32 AM 44.6 °F 40.7 °F 44.6 °F 100% 29.96 in 0.5 mi SW 6.9 mph - N/A Fog Fog
3:38 AM 44.6 °F 41.4 °F 44.6 °F 100% 29.96 in 1.0 mi SW 5.8 mph - N/A   Mist
3:42 AM 44.6 °F 42.2 °F 44.6 °F 100% 29.96 in 2.0 mi SSW 4.6 mph - N/A   Partly Cloudy
3:49 AM 44.6 °F 43.1 °F 44.6 °F 100% 29.96 in 10.0 mi West 3.5 mph - N/A   Partly Cloudy
4:01 AM 43.0 °F 41.3 °F 43.0 °F 100% 30.09 in 10.0 mi WNW 3.5 mph - N/A   Partly Cloudy
5:01 AM 44.1 °F 42.5 °F 43.0 °F 96% 30.09 in 10.0 mi NNW 3.5 mph - N/A   Mostly Cloudy
6:01 AM 45.0 °F - 44.1 °F 97% 30.11 in 10.0 mi Calm Calm - N/A   Clear
6:36 AM 41.0 °F 35.8 °F 39.2 °F 93% 29.99 in 1.2 mi NNW 8.1 mph - N/A   Mostly Cloudy
6:39 AM 39.2 °F 33.6 °F 39.2 °F 100% 29.99 in 0.5 mi NNW 8.1 mph - N/A Fog Fog
6:48 AM 39.2 °F 34.2 °F 39.2 °F 100% 29.99 in 0.2 mi NNW 6.9 mph - N/A Fog Fog
6:57 AM 39.2 °F 35.0 °F 39.2 °F 100% 30.00 in 0.8 mi NNW 5.8 mph - N/A   Mostly Cloudy
7:01 AM 39.2 °F 34.2 °F 39.2 °F 100% 30.00 in 1.0 mi NNW 6.9 mph - N/A   Scattered Clouds
7:10 AM 39.2 °F 35.9 °F 39.2 °F 100% 30.00 in 0.2 mi NNW 4.6 mph - N/A Fog Fog
7:37 AM 39.2 °F 35.9 °F 39.2 °F 100% 30.00 in 1.2 mi NW 4.6 mph - N/A   Overcast
7:49 AM 41.0 °F 38.0 °F 39.2 °F 93% 30.00 in 5.0 mi NW 4.6 mph - N/A   Overcast
8:01 AM 42.1 °F 38.4 °F 42.1 °F 100% 30.12 in 10.0 mi North 5.8 mph - N/A   Overcast
9:01 AM 44.1 °F 42.5 °F 44.1 °F 100% 30.13 in 10.0 mi North 3.5 mph - N/A   Overcast
9:09 AM 44.6 °F - 44.6 °F 100% 30.01 in 10.0 mi Calm Calm - N/A   Overcast
10:01 AM 46.0 °F 43.9 °F 45.0 °F 96% 30.14 in 10.0 mi NNW 4.6 mph - N/A   Overcast
11:01 AM 48.0 °F - 46.0 °F 93% 30.15 in 10.0 mi Calm Calm - N/A   Overcast
12:01 PM 51.1 °F - 48.0 °F 89% 30.15 in 10.0 mi ENE 3.5 mph - N/A   Overcast
1:01 PM 54.0 °F - 48.0 °F 80% 30.16 in 10.0 mi Calm Calm - N/A   Overcast
2:01 PM 55.0 °F - 48.0 °F 77% 30.16 in 10.0 mi East 3.5 mph - N/A   Overcast
2:24 PM 55.4 °F - 48.2 °F 77% 30.04 in 10.0 mi Calm Calm - N/A   Overcast
3:01 PM 57.0 °F - 48.9 °F 74% 30.17 in 10.0 mi ESE 4.6 mph - N/A   Overcast
3:43 PM 57.2 °F - 48.2 °F 72% 30.04 in 9.0 mi Variable 3.5 mph - N/A   Overcast
4:01 PM 57.9 °F - 50.0 °F 75% 30.16 in 10.0 mi South 3.5 mph - N/A   Overcast
4:26 PM 57.2 °F - 51.8 °F 82% 30.04 in 10.0 mi SSE 3.5 mph - N/A   Overcast
5:01 PM 59.0 °F - 51.1 °F 75% 30.15 in 10.0 mi South 3.5 mph - N/A   Overcast
6:01 PM 57.2 °F - 50.0 °F 77% 30.03 in 10.0 mi Variable 3.5 mph - N/A   Overcast
7:01 PM 59.0 °F - 50.0 °F 72% 30.15 in 10.0 mi Variable 4.6 mph - N/A   Overcast
7:20 PM 59.0 °F - 50.0 °F 72% 30.03 in 10.0 mi Calm Calm - N/A   Overcast
7:41 PM 59.0 °F - 50.0 °F 72% 30.03 in 10.0 mi WNW 4.6 mph - N/A   Overcast
8:01 PM 59.0 °F - 50.0 °F 72% 30.15 in 10.0 mi WNW 5.8 mph - N/A   Overcast
9:01 PM 57.2 °F - 50.0 °F 77% 30.03 in 10.0 mi WSW 6.9 mph - N/A   Overcast
10:01 PM 55.9 °F - 51.1 °F 84% 30.16 in 10.0 mi West 6.9 mph - N/A   Overcast
11:01 PM 55.9 °F - 50.0 °F 80% 30.17 in 10.0 mi NW 4.6 mph - N/A   Overcast